Munising, MI

4:50 AM EDT on July 21, 2017 (GMT -0400)
Munising

Weather History for KP53 - September, 2013

Change the Weather History Date:

Wednesday, September 11, 2013

  Actual Average (KISQ) Record (KISQ)
Temperature  
Mean Temperature 70 °F -  
Max Temperature 78 °F 66 °F 78 °F (1978)
Min Temperature 64 °F 48 °F 32 °F (1958)
Cooling Degree Days 6    
Growing Degree Days 20 (Base 50)    
Moisture  
Dew Point 62 °F    
Average Humidity 81    
Maximum Humidity 90    
Minimum Humidity 52    
Precipitation  
Precipitation 0.25 in - - ()
Sea Level Pressure  
Sea Level Pressure 29.90 in    
Wind  
Wind Speed 5 mph (WNW)    
Max Wind Speed 13 mph    
Max Gust Speed 18 mph    
Averages and records for this station are not official NWS values.
T = Trace of Precipitation, MM = Missing Value Source: NWS Daily Summary

Daily Weather History Graph

Daily Weather History Graph

Search for Another Location

Airport or City:

Trip Planner

Search our weather history database for the weather conditions in past years. The results will help you decide how hot, cold, wet, or windy it might be!

Date:

Astronomy

Sep. 11, 2013 Rise Set
Actual Time 7:19 AM EDT 8:05 PM EDT
Civil Twilight 6:49 AM EDT 8:35 PM EDT
Nautical Twilight 6:13 AM EDT 9:12 PM EDT
Astronomical Twilight 5:35 AM EDT 9:49 PM EDT
Moon 2:10 PM EDT (9/11) 11:38 PM EDT (9/11)
Length of Visible Light 13h 46m
Length of Day
12h 45m
Waxing Crescent, 38% of the Moon is Illuminated
Sep 11
Waxing Crescent
Sep 12
First Quarter
Sep 19
Full
Sep 26
Last Quarter
Oct 4
New

Hourly Weather History & Observations

Time (EDT) Temp. Dew Point Humidity Pressure Visibility Wind Dir Wind Speed Gust Speed Precip Events Conditions
12:56 AM 64.9 °F 62.1 °F 90% 29.88 in - SSW 4.6 mph - N/A   Unknown
1:56 AM 64.0 °F 61.0 °F 90% 29.89 in - South 5.8 mph - N/A   Unknown
2:56 AM 66.0 °F 63.0 °F 90% 29.89 in - SSW 5.8 mph - N/A   Unknown
3:56 AM 64.9 °F 62.1 °F 90% 29.89 in - SSW 6.9 mph - N/A   Unknown
4:56 AM 64.9 °F 62.1 °F 90% 29.89 in - South 9.2 mph - N/A   Unknown
5:56 AM 64.0 °F 61.0 °F 90% 29.90 in - SE 3.5 mph - N/A   Unknown
6:56 AM 64.0 °F 61.0 °F 90% 29.91 in - ESE 3.5 mph - N/A   Unknown
7:56 AM 64.0 °F 61.0 °F 90% 29.93 in - Calm Calm - N/A   Unknown
8:56 AM 66.0 °F 62.1 °F 87% 29.94 in - WNW 5.8 mph - N/A   Unknown
9:56 AM 66.0 °F 62.1 °F 87% 29.94 in - Calm Calm - N/A   Unknown
10:56 AM 69.1 °F 63.0 °F 81% 29.93 in - Calm Calm - N/A   Unknown
11:56 AM 75.0 °F 61.0 °F 62% 29.91 in - Variable 4.6 mph - N/A   Unknown
12:56 PM 77.0 °F 57.9 °F 52% 29.90 in - WNW 5.8 mph - N/A   Unknown
1:56 PM 75.0 °F 62.1 °F 64% 29.90 in - ENE 4.6 mph - N/A   Unknown
2:56 PM 73.9 °F 64.0 °F 71% 29.88 in - NE 8.1 mph - N/A   Unknown
3:56 PM 73.9 °F 63.0 °F 68% 29.88 in - NE 9.2 mph - N/A   Unknown
4:56 PM 72.0 °F 61.0 °F 68% 29.88 in - Calm Calm - N/A   Unknown
5:56 PM 70.0 °F 60.1 °F 71% 29.87 in - Calm Calm - N/A   Unknown
6:56 PM 69.1 °F 64.0 °F 84% 29.90 in - NW 6.9 mph - 0.25 in   Unknown
7:56 PM 66.9 °F 63.0 °F 87% 29.91 in - NW 5.8 mph - N/A   Unknown
8:56 PM 66.9 °F 61.0 °F 81% 29.91 in - NW 12.7 mph 18.4 mph N/A   Unknown
9:56 PM 66.0 °F 61.0 °F 84% 29.92 in - NW 9.2 mph - N/A   Unknown
10:56 PM 64.9 °F 61.0 °F 87% 29.92 in - NNW 5.8 mph - N/A   Unknown
11:56 PM 64.9 °F 60.1 °F 84% 29.91 in - Variable 5.8 mph - N/A   Unknown